UBAKUSAT (43467 NORAD) Tracking and Keplerian Element Data

This shows tracking and keplerian element data for the satellite.

Feedback or suggestion? Click here.




ElementValue
Catalog43467
NameUBAKUSAT
Epoch Orbit15070
Epoch Day362.27906033
Epoch Year2020
RAAN354.3668
Inclination51.619
Eccentricity0.0001241
Argument of Perigee137.3285
Mean Anonmoly222.7838
Mean Motion16.38845679
Decay Rate0.0626931
L11 43467U 98067NQ 20362.27906033 .06269310 12352-4 52456-3 0 9996
L22 43467 51.6190 354.3668 0001241 137.3285 222.7838 16.38845679150702

Live tracking and technical data element details for UBAKUSAT (NORAD 43467). UBAKUSAT can be tracked NOW for your location showing map with azimuth and elevation plus other details from your city location.

Track the satellite on the map from your city or location and see movement details for azimuth, elevation, latitude, longitude, range, height, and movement on the map or in text.







IsCatalogInMostPopularTable: catalog: 43467, numindb: 579
Update: records affected: 1



GetName: 43467 UBAKUSAT

Hit Count: updated at: Sun, 26 Sep 2021 01:18:17 GMT